User: anonymous   Login
Location: Unspecified
(0.0000°N, 0.0000°E)
Time: 03:06:40
(UTC+00:00)
Language:

Optus B3 - Orbit

View from above orbital plane
View from above orbital plane
View from above satellite
View from above satellite

Ground track
Ground track

The orbit data is extracted from the following two-line orbital elements,

1 23227U 94055A   15108.73544602 -.00000099  00000-0  00000+0 0  9993
2 23227 006.0919 056.4934 0003505 325.0858 253.8811 01.00271402 75555
Epoch (UTC): 18 April 2015 17:39:02
Eccentricity: 0.0003505
inclination: 6.0919°
perigee height: 35771 km
apogee height: 35801 km
right ascension of ascending node: 56.4934°
argument of perigee: 325.0858°
revolutions per day: 1.00271402
mean anomaly at epoch: 253.8811°
orbit number at epoch: 7555

The dashed part of the orbit path shows where the satellite is in the earth's shadow,  

DLR